weather.gov     
National Weather Service

Regional Weather Roundup
NWS Homepage
This page is being discontinued on March 12, 2014.
The same data is available at this site. Please update your bookmarks.
Thank you, and we apologize for the inconvenience.
Please send an email to SR-SRH.Webmaster@noaa.gov with any concerns.


Current Version
Previous Version:    01  02  03  04  05  06  07  08  09  10  11  12  13  14  15  16  17  18  19  20  21  22  23  24  25  26  27  28  29  30  
   31  32  33  34  35  36  37  38  39  40  41  42  43  44  45  46  47  48  49  50  51  52  53  
[Printable]
583
ASUS43 KLSX 230307
RWRMO

WEATHER SUMMARY FOR MISSOURI
NATIONAL WEATHER SERVICE SPRINGFIELD MO
1000 PM CDT FRI AUG 22 2014

NOTE: "FAIR" INDICATES FEW OR NO CLOUDS BELOW 12,000 FEET WITH NO
       SIGNIFICANT WEATHER AND/OR OBSTRUCTIONS TO VISIBILITY.
       CURRENT SKY AND/OR WEATHER CONDITIONS ARE NOT AVAILABLE FOR
       CHILLICOTHE AND FARMINGTON.

MOZ001>031-035>038-043-044-053-054-230400-
...NORTHERN AND WESTERN MISSOURI...

CITY           SKY/WX    TMP DP  RH WIND       PRES   REMARKS
KANSAS CTY INT CLOUDY    82  70  66 SE3       29.93R
KANSAS C DTWN  CLOUDY    84  66  54 CALM      29.91R
LEE`S SUMMIT   MOCLDY    79  69  71 CALM      29.94R
ST JOSEPH      CLOUDY    78  75  90 CALM      29.91S
CHILLICOTHE      N/A     82  77  84 NE3       29.93S HX  90
KIRKSVILLE     CLEAR     78  76  93 N5        29.97R FOG

$$
MOZ066>068-077>081-088>096-101>105-230400-
...SOUTHWEST MISSOURI...

CITY           SKY/WX    TMP DP  RH WIND       PRES   REMARKS
SPRINGFIELD    PTCLDY    83  69  62 S8        29.96R
JOPLIN         CLEAR     85  71  63 S9        29.94R HX  90

$$
MOZ032>034-039>042-045>050-055>058-069>072-230400-
...CENTRAL MISSOURI...

CITY           SKY/WX    TMP DP  RH WIND       PRES   REMARKS
COLUMBIA       PTCLDY    82  77  84 NE6       29.93R HX  90
JEFFERSON CITY PTCLDY    83  78  85 CALM      29.90R HX  93
ROLLA          CLEAR     83  69  62 S9        29.94R
SEDALIA        MOCLDY    82  76  81 CALM      29.93R
WHITEMAN AFB   MOCLDY    80  72  76 SE2       29.92R
OSAGE BEACH    CLEAR     81  72  74 CALM      29.93R

$$
MOZ051-052-059>065-230400-
...EAST CENTRAL MISSOURI...

CITY           SKY/WX    TMP DP  RH WIND       PRES   REMARKS
ST LOUIS INTL  MOCLDY    85  77  77 E3        29.95R HX  95
SPIRIT OF STL  PTCLDY    80  77  90 CALM      29.92R
ST CHARLES     PTCLDY    81  78  91 E7        29.93R

$$
MOZ072>076-082>087-097>100-106>115-230400-
...SOUTH CENTRAL AND SOUTHEAST MISSOURI...

CITY           SKY/WX    TMP DP  RH WIND       PRES   REMARKS
CAPE GIRARDEAU PTCLDY    82  76  81 CALM      29.96R
FARMINGTON     PTCLDY    81  72  74 S5        29.99S
POPLAR BLUFF   PTCLDY    83  74  74 S3        29.95R
WEST PLAINS    CLEAR     81  71  71 S3        30.00R

$$




U.S. Dept. of Commerce
NOAA National Weather Service
1325 East West Highway
Silver Spring, MD 20910
E-mail: w-nws.webmaster@noaa.gov
Page last modified: May 16, 2007
NATIONAL WEATHER SERVICE: for Safety, for Work, for Fun - FOR LIFE